Regional Weather Roundup
Issued by NWS

Home | Current Version | Previous Version | Graphics & Text | Print | Product List | Glossary On
Versions: 1 2 3 4 5 6 7 8 9 10 11 12 13 14 15 16 17 18 19 20 21 22 23 24 25 26 27 28 29 30 31 32 33 34 35 36 37 38 39 40 41 42 43 44 45 46 47 48 49 50
000
ASUS43 KFSD 230110
RWRSD

WEATHER ROUNDUP FOR SOUTH DAKOTA
NATIONAL WEATHER SERVICE SIOUX FALLS SD
800 PM CDT FRI JUL 22 2016

NOTE: "FAIR" INDICATES FEW OR NO CLOUDS BELOW 12,000 FEET WITH NO
SIGNIFICANT WEATHER AND/OR OBSTRUCTIONS TO VISIBILITY.


SDZ001>005-009-010-012>017-230200-
NORTHWEST AND NORTH CENTRAL SOUTH DAKOTA

CITY           SKY/WX    TMP DP  RH WIND       PRES   REMARKS
BUFFALO          N/A     87  55  33 SE20      29.79F
FAITH            N/A     77  63  61 E21G31    29.92S
MOBRIDGE       LGT RAIN  78  63  59 NE18      29.90R
$$

SDZ012>016-024>037-041>051-057-063-072>074-230200-
SOUTHWEST AND SOUTH CENTRAL SOUTH DAKOTA

CITY           SKY/WX    TMP DP  RH WIND       PRES   REMARKS
RAPID CTY ARPT CLOUDY    84  57  39 SW18G28   29.92F
PIERRE         CLOUDY    86  70  58 SE23G30   29.88S
CUSTER         CLOUDY    76  49  38 S9G23     30.13F
ELLSWORTH AFB  SUNNY     87  55  32 S22       29.91F
PHILIP         CLOUDY    94  56  27 SE10      29.87F
PINE RIDGE     CLOUDY    83  57  41 SE20G28   29.98F
WINNER         FAIR      92  74  55 SE12      29.94R HX 101
$$

SDZ004>011-016>023-039-040-230200-
NORTHEAST SOUTH DAKOTA

CITY           SKY/WX    TMP DP  RH WIND       PRES   REMARKS
ABERDEEN       CLOUDY    82  74  76 CALM      29.95R
WATERTOWN      CLOUDY    84  68  58 SE12G20   29.93R
BROOKINGS      CLOUDY    83  75  77 SE12      29.94F
SISSETON         N/A     80  70  71 E6        29.94R
$$

SDZ017-020-022-023-036>040-048>070-230200-
SOUTHEAST SOUTH DAKOTA

CITY           SKY/WX    TMP DP  RH WIND       PRES   REMARKS
SIOUX FALLS    MOCLDY    87  78  74 E8        29.94F HX 100
HURON          CLOUDY    87  74  64 SE13      29.90F HX  95
CHAMBERLAIN    CLOUDY    87  63  45 E7        29.92S
MITCHELL       CLOUDY    89  77  67 SE20G31   29.87F HX 101
YANKTON        CLOUDY    88  77  70 E6        29.89F HX 100
$$

ABBREVIATIONS USED IN REMARKS
   TC - TEMPERATURE IN CELSIUS
  WCI - WIND CHILL INDEX
   HX - HEAT INDEX
  VSB - VISIBILITY





USA.gov is the U.S. government's official web portal to all federal, state and local government web resources and services.